Regional Weather Roundup
Issued by NWS

Home | Current Version | Previous Version | Graphics & Text | Print | Product List | Glossary On
Versions: 1 2 3 4 5 6 7 8 9 10 11 12 13 14 15 16 17 18 19 20 21 22 23 24 25 26 27 28 29 30 31 32 33 34 35 36 37 38 39 40 41 42 43 44 45 46 47 48 49 50
000
ASUS43 KIND 031259
RWRIN

WEATHER ROUNDUP FOR INDIANA
NATIONAL WEATHER SERVICE INDIANAPOLIS IN
800 AM EST SAT DEC 03 2016

NOTE: "FAIR" INDICATES FEW OR NO CLOUDS BELOW 12,000 FEET WITH NO
SIGNIFICANT WEATHER AND/OR OBSTRUCTIONS TO VISIBILITY.

* - STATION DOES NOT REPORT WEATHER SUCH AS PRECIPITATION OR FOG.

+ - STATION NOT QUALITY CONTROLLED BY THE NATIONAL WEATHER SERVICE.
    USE DATA WITH CAUTION...ESPECIALLY DEWPOINT AND RELATIVE
    HUMIDITY OBSERVATIONS.

INZ001>003-010>013-019-020-031400-
NORTHWEST INDIANA

CITY           SKY/WX    TMP DP  RH WIND       PRES   REMARKS
GARY /AIRPORT/ CLOUDY    34  23  64 W12       30.36S WCI  25
MONTICELLO +   CLOUDY    33  25  71 CALM      30.35R

$$

LMZ046-743>745-031400-
SOUTHERN LAKE MICHIGAN

STATION/POSITION TIME  TEMP    WIND        PRES    WAVE
                       AIR SEA DIR/SP/G            HT
                 (UTC) (F)     (DEG/KT/KT) (MB)    (FT)
BURNS HARBOR     1240   35     260/ 11/ 14 1028.1S
MICHIGAN CITY    1230   35     240/ 13/ 17   N/A

$$

INZ004-005-014>016-021>024-031400-
NORTH CENTRAL INDIANA

CITY           SKY/WX    TMP DP  RH WIND       PRES   REMARKS
ELKHART        CLOUDY    34  28  80 W6        30.32  WCI  29
GOSHEN         CLOUDY    34  27  75 W8        30.32S WCI  27
SOUTH BEND     CLOUDY    33  26  75 W6        30.33F WCI  28

$$

INZ006>009-017-018-025>027-031400-
NORTHEAST INDIANA

CITY           SKY/WX    TMP DP  RH WIND       PRES   REMARKS
ANGOLA *+      CLOUDY    34  28  80 W5        30.31R WCI  30
FORT WAYNE     CLOUDY    35  27  72 W7        30.33S WCI  29
KENDALLVILLE + CLOUDY    34  28  80 W7        30.31S WCI  28

$$

INZ028-029-035-036-043>045-051>053-031400-
WEST CENTRAL INDIANA

CITY           SKY/WX    TMP DP  RH WIND       PRES   REMARKS
CRAWFORDSVL +  CLOUDY    32  27  82 NW6       30.36R WCI  26
GREENCASTLE +  PTCLDY    34  30  86 CALM      30.36R
LAFAYETTE      CLOUDY    33  26  75 W6        30.36R WCI  28
TERRE HAUTE    CLOUDY    35  27  72 CALM      30.38R

$$

INZ030>032-037>040-046>048-054>057-064-065-031400-
CENTRAL INDIANA

CITY           SKY/WX    TMP DP  RH WIND       PRES   REMARKS
COLUMBUS       CLOUDY    37  32  81 CALM      30.36R
GREENWOOD *+   CLOUDY    38  30  73 W6        30.35R
INDIANAPOLIS   CLOUDY    36  27  69 W8        30.35R
-EAGLE CREEK   CLOUDY    36  29  75 NW13      30.34R
KOKOMO +       CLOUDY    35  28  75 NW6       30.35R WCI  30
SHELBYVILLE    CLOUDY    38  28  67 NW5       30.34R
ZIONSVILLE +   CLOUDY    34  29  83 W8        30.35R WCI  27

$$

INZ033-034-041-042-049-050-058-059-031400-
EAST CENTRAL INDIANA

CITY           SKY/WX    TMP DP  RH WIND       PRES   REMARKS
MUNCIE         CLOUDY    36  27  69 NW7G26    30.33S

$$

INZ060-061-067>069-081>083-085>088-031400-
SOUTHWEST INDIANA

CITY           SKY/WX    TMP DP  RH WIND       PRES   REMARKS
EVANSVILLE     CLOUDY    34  31  88 CALM      30.40R
HUNTINGBURG *+ CLOUDY    37  34  87 CALM      30.39R

$$

INZ062-063-066-070>080-084-089>092-031400-
SOUTH CENTRAL AND SOUTHEAST INDIANA

CITY           SKY/WX    TMP DP  RH WIND       PRES   REMARKS
BLOOMINGTON    CLOUDY    37  29  72 VRB3      30.36R
MADISON *+     CLOUDY    37  32  81 CALM      30.37R
SEYMOUR +      CLOUDY    37  32  81 CALM      30.36R

$$





USA.gov is the U.S. government's official web portal to all federal, state and local government web resources and services.